Regional Weather Roundup
Issued by NWS Nashville, TN

Home | Current Version | Previous Version | Text Only | Print | Product List | Glossary On
Versions: 1 2 3 4 5 6 7 8 9 10 11 12 13 14 15 16 17 18 19 20 21 22 23 24 25 26 27 28 29 30 31 32 33 34 35 36 37 38 39 40 41 42 43 44 45 46 47 48 49 50
772
ASUS44 KOHX 302010
RWROHX
MIDDLE TENNESSEE HOURLY WEATHER ROUNDUP
NATIONAL WEATHER SERVICE NASHVILLE TN
300 PM CDT MON MAY 30 2016

NOTE: "FAIR" INDICATES FEW OR NO CLOUDS BELOW 12,000 FEET WITH
NO SIGNIFICANT WEATHER AND/OR OBSTRUCTIONS TO VISIBILITY.

* THESE REPORTS ARE NOT UNDER NWS QUALITY CONTROL AND MAY NOT
  REPORT WEATHER SUCH AS PRECIPITATION AND FOG.


TNZ005>011-023>034-057-059-062>066-078-080-302100
...NORTHERN MIDDLE TENNESSEE...

CITY           SKY/WX    TMP DP  RH WIND       PRES   REMARKS
CLARKSVILLE    SUNNY     86  60  41 NW10      30.02F
CROSSVILLE     MOSUNNY   82  57  42 N8        30.06S
DICKSON        MOSUNNY   84  59  42 N6        30.03F
LEBANON        MOSUNNY   85  55  35 N10       30.01F
NASHVILLE      MOSUNNY   86  54  33 N9        30.02F
SMYRNA         MOSUNNY   89  59  36 N9G16     30.02F
SPARTA         SUNNY     86  63  45 VRB7      30.01F
$$
TNZ056-058-060-061-075>077-079-093>097-302100
...SOUTHERN MIDDLE TENNESSEE...

CITY           SKY/WX    TMP DP  RH WIND       PRES   REMARKS
COLUMBIA       SUNNY     88  59  37 NW7       30.00F
FAYETTEVILLE   MOSUNNY   86  61  42 N10       30.00F
LEWISBURG      MOSUNNY   90  59  35 N9        30.00F
MCMINNVILLE    SUNNY     86  61  42 N9        30.02F
SHELBYVILLE    SUNNY     88  61  40 N10       30.02F
TULLAHOMA      SUNNY     84  57  39 N8        30.03F
WINCHESTER     MOSUNNY   88  61  40 NW13      30.00F
$$


...KEY TO REMARKS...
VSB - VISIBILITY IN MILES
WCI - WIND CHILL INDEX
HX  - HEAT INDEX





USA.gov is the U.S. government's official web portal to all federal, state and local government web resources and services.